Regional Weather Roundup
Issued by NWS

Home | Current Version | Previous Version | Text Only | Print | Product List | Glossary Off
Versions: 1 2 3 4 5 6 7 8 9 10 11 12 13 14 15 16 17 18 19 20 21 22 23 24 25 26 27 28 29 30 31 32 33 34 35 36 37 38 39 40 41 42 43 44 45 46 47 48 49 50

000
ASUS43 KFSD 230810
RWRSD

WEATHER ROUNDUP FOR SOUTH DAKOTA
NATIONAL WEATHER SERVICE SIOUX FALLS SD
300 AM CDT SAT AUG 23 2014

NOTE: "FAIR" INDICATES FEW OR NO CLOUDS BELOW 12,000 FEET WITH NO
SIGNIFICANT WEATHER AND/OR OBSTRUCTIONS TO VISIBILITY.


SDZ001>005-009-010-012>017-230900-
NORTHWEST AND NORTH CENTRAL SOUTH DAKOTA

CITY           SKY/WX    TMP DP  RH WIND       PRES   REMARKS
BUFFALO          N/A     64  61  90 E13       29.92F
FAITH            N/A     65  63  93 E17       29.96F
MOBRIDGE       RAIN      65  64  97 E18G28    29.96F FOG
$$

SDZ012>016-024>037-041>051-057-063-072>074-230900-
SOUTHWEST AND SOUTH CENTRAL SOUTH DAKOTA

CITY           SKY/WX    TMP DP  RH WIND       PRES   REMARKS
RAPID CTY ARPT LGT RAIN  66  64  93 E12       29.94F
PIERRE         LGT RAIN  69  69 100 E12       29.92S
ELLSWORTH AFB  CLOUDY    66  65  99 E9        29.94F
PHILIP         CLOUDY    69  65  86 E13       29.91F
PINE RIDGE     RAIN      61  61 100 E14       29.95F
WINNER         RAIN      72  69  90 E12       29.93S FOG
$$

SDZ004>011-016>023-039-040-230900-
NORTHEAST SOUTH DAKOTA

CITY           SKY/WX    TMP DP  RH WIND       PRES   REMARKS
ABERDEEN       CLOUDY    65  64  97 NE12      30.00F
WATERTOWN      CLOUDY    67  66  97 NE10      29.98F
SISSETON         N/A     66  66 100 NE7       30.00F
$$

SDZ017-020-022-023-036>040-048>070-230900-
SOUTHEAST SOUTH DAKOTA

CITY           SKY/WX    TMP DP  RH WIND       PRES   REMARKS
SIOUX FALLS    CLOUDY    73  68  84 E10       29.95F
HURON          CLOUDY    71  67  87 E10       29.93F
CHAMBERLAIN    LGT RAIN  70  69  97 E5        29.93F
MITCHELL       CLOUDY    72  70  93 E7        29.94R
YANKTON        CLOUDY    73  72  94 SE13      29.96R
$$

ABBREVIATIONS USED IN REMARKS
   TC - TEMPERATURE IN CELSIUS
  WCI - WIND CHILL INDEX
   HX - HEAT INDEX
  VSB - VISIBILITY



USA.gov is the U.S. government's official web portal to all federal, state and local government web resources and services.